Date,TemperatureHighF,TemperatureAvgF,TemperatureLowF,DewpointHighF,DewpointAvgF,DewpointLowF,HumidityHigh,HumidityAvg,HumidityLow,PressureMaxIn,PressureMinIn,WindSpeedMaxMPH,WindSpeedAvgMPH,GustSpeedMaxMPH,PrecipitationSumIn
2012-1-1,30.7,23.8,18.0,25.3,16.0,9.2,80,72,62,30.31,29.82,32,16,51,0.08
2012-1-2,19.2,14.2,9.0,11.7,5.8,1.9,76,69,58,30.49,30.30,21,8,31,0.00
2012-1-3,27.5,17.7,8.4,21.3,11.0,2.9,86,75,63,30.40,29.81,13,4,21,0.00
2012-1-4,39.4,28.8,22.6,29.0,23.0,18.8,87,79,64,30.07,29.89,9,2,13,0.00
2012-1-5,53.2,37.5,21.0,37.0,28.2,17.5,90,71,50,29.93,29.57,10,2,17,0.00
2012-1-6,45.9,39.5,30.9,30.6,28.2,23.0,79,64,50,29.88,29.58,24,9,28,0.00
2012-1-7,39.0,28.7,20.7,27.0,21.0,15.1,83,73,60,30.17,29.88,21,4,28,0.00
2012-1-8,40.6,28.1,16.0,32.4,21.6,11.5,89,77,59,30.24,30.00,10,2,18,0.00
2012-1-9,47.8,36.4,25.0,30.1,24.9,19.7,83,64,49,30.00,29.84,14,4,19,0.00
2012-1-10,51.6,34.5,23.2,34.9,26.5,18.8,88,74,50,29.94,29.61,7,1,10,0.00
2012-1-11,39.9,24.1,9.3,33.9,18.2,1.4,91,78,68,29.91,29.60,27,12,32,0.02
2012-1-12,13.3,9.8,7.0,6.1,2.8,0.4,77,73,68,29.91,29.83,20,12,26,0.00
2012-1-13,15.1,8.8,5.5,6.1,2.1,-1.4,78,74,65,29.99,29.89,13,3,17,0.00
2012-1-14,25.5,17.6,7.9,17.6,11.0,1.8,82,75,67,30.06,29.95,9,2,10,0.00
2012-1-15,40.5,28.0,20.5,28.3,21.9,16.4,88,78,61,30.05,29.67,16,4,23,0.02
2012-1-16,29.1,21.5,13.6,24.6,14.1,6.1,86,73,61,30.04,29.69,19,10,24,0.02
2012-1-17,13.6,6.3,-2.4,6.9,-1.7,-8.6,79,69,58,30.24,30.01,16,7,24,0.00
2012-1-18,26.2,6.1,-9.9,15.8,-1.0,-18.1,81,72,62,30.18,29.64,25,8,28,0.00
2012-1-19,2.5,-7.5,-16.2,-11.8,-17.0,-22.9,72,63,45,30.17,29.97,14,3,18,0.00
2012-1-20,18.5,5.8,-7.4,6.5,-2.8,-15.5,75,67,56,30.21,30.07,5,1,8,0.00
2012-1-21,21.4,8.4,-5.4,17.0,2.1,-11.6,84,75,65,30.21,29.70,19,6,32,0.00
2012-1-22,25.9,23.5,21.4,21.4,19.3,17.0,89,84,81,29.70,29.53,16,5,20,0.00
2012-1-23,25.9,22.1,18.0,21.5,17.8,13.1,89,83,77,29.91,29.52,20,8,26,0.00
2012-1-24,34.5,21.7,11.1,22.9,15.3,7.5,88,77,60,30.25,29.91,11,3,13,0.00
2012-1-25,35.4,27.8,23.2,26.9,23.1,18.5,88,82,69,30.21,29.77,16,5,22,0.02
2012-1-26,39.4,29.6,20.5,30.2,23.4,14.4,90,78,65,29.79,29.67,24,5,30,0.02
2012-1-27,35.8,25.6,14.7,31.7,19.5,9.4,86,77,67,29.90,29.66,23,6,29,0.04
2012-1-28,27.1,21.3,15.1,17.0,13.9,10.0,83,73,61,29.96,29.87,12,5,17,0.04
2012-1-29,20.3,14.2,5.2,14.6,6.5,0.3,82,71,59,30.16,29.88,12,4,16,0.00
2012-1-30,45.1,29.1,18.0,30.2,20.9,10.8,81,72,55,29.88,29.56,16,3,20,0.00
2012-1-31,41.9,30.8,21.0,34.9,26.1,17.5,90,83,75,29.96,29.54,15,4,24,0.00
2012-2-1,39.6,33.1,29.5,33.4,29.7,26.4,91,87,77,30.08,29.96,6,1,10,0.00
2012-2-2,38.3,30.9,25.0,33.3,27.7,22.2,91,88,80,30.39,30.08,6,0,7,0.00
2012-2-3,35.6,30.7,26.6,31.2,27.8,24.3,92,89,82,30.48,30.39,9,1,12,0.00
2012-2-4,39.4,28.9,23.5,32.9,25.6,21.6,93,88,75,30.46,30.30,14,3,19,0.00
2012-2-5,34.0,27.5,21.0,28.5,24.0,17.8,90,87,80,30.34,30.13,11,2,14,0.00
2012-2-6,42.8,30.6,20.5,32.0,24.3,17.2,90,78,59,30.33,30.04,18,5,26,0.00
2012-2-7,29.1,19.0,7.3,21.5,8.2,-1.2,74,63,40,30.56,30.33,16,6,20,0.00
2012-2-8,30.9,16.8,4.8,10.3,4.6,-1.1,77,60,37,30.49,30.19,10,1,12,0.00
2012-2-9,39.9,25.2,13.1,24.5,14.9,5.1,78,65,50,30.19,29.84,24,5,29,0.00
2012-2-10,16.9,6.3,-1.5,5.7,-6.7,-11.4,69,55,42,30.57,30.05,22,12,30,0.00
2012-2-11,17.8,6.9,-2.4,-1.8,-6.9,-13.7,65,53,37,30.60,30.45,18,7,25,0.00
2012-2-12,32.5,16.1,3.0,6.4,0.8,-5.2,70,52,29,30.46,30.01,8,2,14,0.00
2012-2-13,36.1,26.7,18.0,21.0,14.3,3.0,79,60,48,30.02,29.70,12,3,17,0.00
2012-2-14,40.5,28.9,18.1,27.9,22.1,14.4,86,76,59,29.76,29.65,11,2,15,0.00
2012-2-15,46.0,32.4,19.2,31.7,25.8,15.2,87,77,50,30.00,29.76,10,1,17,0.00
2012-2-16,38.5,29.4,21.7,24.2,20.6,16.7,87,71,48,30.07,29.99,18,3,23,0.00
2012-2-17,37.0,28.7,19.0,24.8,18.5,9.9,86,66,55,30.16,29.92,20,6,24,0.00
2012-2-18,38.5,23.6,10.6,20.9,13.7,5.4,83,67,46,30.22,30.10,8,1,13,0.00
2012-2-19,44.8,29.7,15.4,27.1,19.1,10.7,85,66,43,30.11,29.97,16,4,23,0.00
2012-2-20,44.4,33.7,26.2,29.4,24.6,20.1,89,70,47,30.02,29.59,23,6,28,0.00
2012-2-21,36.7,31.5,23.7,31.0,26.4,18.3,90,81,72,29.59,29.48,0,0,0,0.04
2012-2-22,38.7,27.6,16.0,25.0,19.9,12.0,85,73,57,29.53,29.40,2,0,6,0.02
2012-2-23,37.8,29.9,20.8,25.9,22.3,16.7,87,74,60,29.71,29.40,8,1,12,0.02
2012-2-24,29.1,21.7,10.9,24.8,13.2,4.4,85,70,58,30.08,29.70,19,10,27,0.00
2012-2-25,31.1,17.2,4.5,16.6,8.7,-0.3,81,70,53,30.20,30.00,14,4,19,0.00
2012-2-26,37.9,28.2,24.1,28.7,20.5,15.4,83,73,64,30.01,29.57,22,9,29,0.00
2012-2-27,29.8,22.9,16.3,20.5,14.7,10.1,83,71,58,30.39,29.98,18,6,30,0.00
2012-2-28,42.1,29.4,19.6,31.6,23.4,13.2,89,79,64,30.31,29.63,20,8,26,0.00
2012-2-29,36.0,32.2,29.8,30.7,28.0,26.4,92,84,77,29.72,29.31,21,9,28,0.06
2012-3-1,49.3,35.6,28.6,33.2,28.1,24.9,86,75,52,29.79,29.69,9,2,13,0.08
2012-3-2,36.9,29.7,22.3,28.9,23.0,17.0,88,76,55,29.71,29.57,15,4,20,0.00
2012-3-3,25.7,19.0,7.0,17.0,11.6,1.7,83,73,59,29.87,29.59,16,8,22,0.00
2012-3-4,29.1,15.3,1.2,15.2,7.2,-3.5,81,71,51,30.10,29.85,9,1,12,0.00
2012-3-5,39.4,23.8,6.1,26.2,16.9,1.5,85,75,56,30.15,29.78,18,4,23,0.00
2012-3-6,52.9,38.2,25.5,37.7,29.8,21.6,86,73,52,29.78,29.51,12,3,18,0.00
2012-3-7,40.5,33.0,21.0,37.3,27.0,14.6,91,79,65,30.00,29.53,21,8,27,0.00
2012-3-8,37.8,25.9,17.4,26.6,16.4,2.9,84,68,46,30.40,30.00,34,8,41,0.00
2012-3-9,37.6,24.6,9.3,19.3,10.4,1.8,74,56,39,30.58,30.05,15,5,22,0.00
2012-3-10,59.2,43.8,28.9,39.5,30.3,19.3,76,60,43,30.05,29.84,12,4,20,0.00
2012-3-11,63.0,49.2,34.5,47.9,36.2,27.4,76,61,48,29.92,29.77,23,4,32,0.00
2012-3-12,55.2,47.1,39.6,47.3,41.7,32.6,88,81,69,29.85,29.61,10,3,20,0.10
2012-3-13,64.8,47.3,30.6,42.3,35.7,-23.8,92,67,8,30.01,29.77,16,4,23,0.00
2012-3-14,70.5,54.5,42.6,48.3,37.9,23.0,90,58,26,29.94,29.68,18,5,24,0.00
2012-3-15,67.8,48.6,32.2,37.6,27.6,19.2,60,45,30,30.07,29.93,16,2,18,0.00
2012-3-16,77.5,55.1,33.4,58.9,40.5,21.5,79,58,45,29.98,29.75,12,3,18,0.00
2012-3-17,76.6,63.3,52.2,62.2,56.3,49.5,93,79,60,29.77,29.69,18,6,34,0.00
2012-3-18,77.0,67.7,59.7,60.4,58.2,56.0,89,73,56,29.74,29.62,22,9,32,0.00
2012-3-19,79.9,67.3,59.9,61.9,58.4,56.6,90,74,51,29.68,29.53,22,9,32,0.63
2012-3-20,64.9,57.0,50.4,57.0,51.4,44.4,93,82,70,29.94,29.67,10,3,14,0.65
2012-3-21,67.3,54.8,48.9,55.8,49.6,45.1,93,83,62,30.08,29.88,11,1,15,0.14
2012-3-22,63.7,57.7,51.4,58.5,54.3,48.6,92,88,82,30.08,29.95,12,4,17,0.08
2012-3-23,68.7,58.9,52.5,61.1,55.4,50.0,94,88,75,29.96,29.88,9,1,13,0.18
2012-3-24,70.7,56.6,43.9,56.8,50.8,38.3,94,82,57,30.10,29.90,17,3,22,0.00
2012-3-25,56.8,42.8,32.7,38.1,30.6,25.5,85,65,38,30.23,30.10,18,6,22,0.00
2012-3-26,46.9,40.0,34.3,30.8,27.7,23.8,74,61,46,30.27,29.83,26,14,37,0.04
2012-3-27,66.0,51.0,40.6,48.2,39.9,30.3,78,66,46,29.86,29.50,22,12,33,0.00
2012-3-28,52.7,44.0,36.3,37.3,33.6,30.0,80,67,54,30.07,29.80,16,7,25,0.00
2012-3-29,60.4,47.2,36.3,41.5,35.6,30.0,80,66,43,30.07,29.77,20,9,28,0.08
2012-3-30,64.6,51.2,43.0,49.1,42.9,38.6,87,74,56,29.84,29.76,11,4,14,0.08
2012-3-31,54.5,46.6,41.0,48.3,42.9,37.9,91,87,79,29.84,29.71,15,6,23,0.00
2012-4-1,69.6,56.2,46.2,48.8,44.4,39.0,91,68,40,29.74,29.56,23,9,31,0.00
2012-4-2,69.4,57.8,48.0,46.8,40.9,36.1,65,54,42,29.87,29.60,24,10,31,0.00
2012-4-3,63.5,52.3,44.8,42.8,34.3,25.2,86,54,25,30.13,29.87,23,10,31,0.00
2012-4-4,66.6,48.9,29.7,32.0,26.5,21.5,74,44,26,30.12,29.95,13,4,20,0.00
2012-4-5,64.6,48.5,34.0,34.8,27.2,20.4,65,45,28,30.17,29.99,17,6,22,0.00
2012-4-6,65.5,47.3,28.9,33.5,27.2,19.2,69,48,26,30.24,30.02,18,6,25,0.00
2012-4-7,57.0,50.0,42.1,45.6,31.9,21.7,83,51,35,30.15,29.96,20,7,30,0.02
2012-4-8,60.4,46.7,30.6,30.7,22.8,18.1,64,41,22,30.19,30.04,22,6,30,0.02
2012-4-9,43.0,37.5,25.9,22.9,18.8,12.7,59,47,37,30.17,30.05,20,10,31,0.00
2012-4-10,42.8,31.9,22.5,18.1,15.3,11.8,70,52,34,30.31,30.16,18,7,28,0.00
2012-4-11,61.7,36.8,19.0,27.4,18.5,10.4,73,50,25,30.39,30.18,9,1,14,0.00
2012-4-12,68.9,47.1,23.2,31.9,24.2,15.9,78,45,23,30.19,29.98,14,5,22,0.00
2012-4-13,54.3,51.9,48.6,49.4,37.7,26.4,90,62,34,29.99,29.63,27,11,43,0.20
2012-4-14,78.1,59.8,43.9,49.9,43.8,36.8,91,61,26,29.78,29.60,9,2,14,0.20
2012-4-15,59.7,50.2,43.3,50.7,46.3,40.4,93,87,62,29.61,29.29,26,8,31,1.08
2012-4-16,46.2,36.8,30.7,40.5,29.9,23.6,92,77,55,30.17,29.35,32,12,44,1.10
2012-4-17,63.0,44.9,24.6,44.0,34.6,20.6,89,69,47,30.26,29.90,18,5,22,0.10
2012-4-18,58.8,51.6,43.9,49.0,43.2,34.1,90,74,51,30.01,29.74,22,7,27,0.10
2012-4-19,54.0,46.0,37.9,35.9,30.4,22.3,72,56,37,30.05,29.95,14,5,19,0.00
2012-4-20,58.5,44.6,27.0,33.7,28.1,19.8,77,54,36,30.11,29.97,14,3,20,0.00
2012-4-21,50.0,46.2,43.0,42.8,38.5,32.1,89,75,57,29.99,29.83,16,6,23,0.49
2012-4-22,59.2,45.9,34.3,44.9,38.4,30.0,89,76,56,30.23,29.95,12,2,17,0.00
2012-4-23,74.1,50.6,29.7,44.4,36.3,26.5,92,63,30,30.23,29.83,10,1,13,0.00
2012-4-24,77.7,60.4,45.7,47.7,41.8,36.0,76,52,32,29.84,29.55,17,3,18,0.00
2012-4-25,77.9,62.2,48.2,53.1,46.6,39.4,73,57,41,29.82,29.51,30,7,32,0.08
2012-4-26,69.1,49.7,39.4,44.2,31.1,20.8,78,52,24,30.17,29.79,20,6,26,0.00
2012-4-27,61.0,49.0,36.5,30.7,26.5,21.9,60,43,29,30.18,29.99,20,8,26,0.00
2012-4-28,50.9,45.2,42.4,37.8,31.9,24.6,77,60,42,30.20,29.97,22,9,29,0.00
2012-4-29,67.1,53.0,41.5,48.0,41.9,37.3,87,67,48,30.21,29.99,14,4,16,0.00
2012-4-30,77.2,58.3,48.0,51.2,44.8,39.1,83,63,33,30.00,29.78,10,3,15,0.00
2012-5-1,76.6,60.1,51.6,61.5,54.3,45.0,92,82,59,29.79,29.47,71,8,71,2.20
2012-5-2,84.9,67.5,55.2,62.0,55.5,50.2,93,69,35,29.75,29.52,24,2,28,0.02
2012-5-3,80.2,65.0,54.5,58.8,54.8,50.2,92,71,44,29.94,29.70,22,3,28,0.04
2012-5-4,69.1,56.0,47.1,53.9,48.3,41.6,88,76,55,30.02,29.87,20,5,24,0.08
2012-5-5,64.2,53.8,47.5,56.3,48.4,41.4,91,82,73,30.04,29.90,17,3,23,0.36
2012-5-6,70.3,57.6,48.0,60.0,53.2,45.4,95,86,68,30.00,29.77,25,4,33,1.12
2012-5-7,64.2,54.3,43.2,46.6,43.1,39.6,92,68,43,30.00,29.87,19,6,28,0.00
2012-5-8,68.7,53.3,46.9,49.3,45.6,39.8,90,76,49,29.99,29.84,19,5,30,0.26
2012-5-9,76.3,56.4,42.4,46.2,42.0,35.8,91,63,31,30.08,29.92,10,3,14,0.00
2012-5-10,81.3,61.3,43.7,51.8,44.9,36.6,80,57,35,29.93,29.77,16,6,23,0.00
2012-5-11,63.7,57.7,47.1,50.9,43.7,34.6,76,60,42,30.23,29.72,23,7,26,0.00
2012-5-12,75.0,54.7,34.3,41.9,33.7,29.7,85,51,22,30.37,30.21,14,2,21,0.00
2012-5-13,79.5,60.1,38.8,43.2,36.6,31.9,77,46,23,30.26,30.00,20,4,25,0.00
2012-5-14,95.5,70.9,55.0,51.9,44.3,38.1,61,41,18,30.01,29.78,15,4,18,0.00
2012-5-15,72.1,62.6,49.6,43.7,38.8,33.6,57,43,27,30.09,29.77,22,7,25,0.00
2012-5-16,84.0,58.0,37.2,41.5,35.9,31.0,83,48,21,30.19,29.98,10,2,12,0.00
2012-5-17,90.9,70.8,51.1,54.7,46.7,34.8,61,44,29,30.00,29.64,24,10,32,0.00
2012-5-18,97.0,75.5,64.6,60.7,55.5,18.3,72,52,27,29.76,29.65,22,8,30,0.45
2012-5-19,90.3,71.4,54.3,65.8,57.8,49.5,86,63,43,29.98,29.68,20,8,26,0.22
2012-5-20,71.2,55.5,46.2,51.5,47.1,41.0,92,76,41,30.17,29.82,20,7,24,0.49
2012-5-21,82.0,61.3,40.3,54.2,46.1,37.0,92,62,34,30.24,30.03,15,3,21,0.00
2012-5-22,90.5,72.1,58.6,58.2,48.7,41.2,59,45,33,30.05,29.59,22,9,31,0.00
2012-5-23,80.1,67.1,57.9,61.8,53.3,46.7,92,63,39,29.62,29.43,22,6,27,0.59
2012-5-24,63.1,57.4,53.8,57.0,54.0,50.2,94,89,71,29.70,29.44,17,4,22,0.52
2012-5-25,72.9,59.5,46.9,52.9,47.4,41.1,90,66,46,30.10,29.66,11,3,16,0.00
2012-5-26,65.8,57.7,50.9,57.0,52.0,46.9,92,82,71,30.23,29.85,22,6,31,0.47
2012-5-27,91.8,72.4,55.2,73.9,64.0,52.8,93,77,54,29.90,29.52,26,8,71,0.39
2012-5-28,81.7,67.1,56.8,63.9,55.7,42.7,93,69,39,29.74,29.58,45,7,71,0.45
2012-5-29,63.1,55.5,48.7,48.3,43.1,39.0,75,63,51,29.95,29.70,20,9,28,0.00
2012-5-30,66.0,54.0,42.6,45.8,41.7,38.1,87,65,44,30.05,29.94,14,4,18,0.00
2012-5-31,78.4,59.7,44.8,46.2,41.9,37.0,86,55,30,30.07,29.97,10,2,14,0.00
2012-6-1,82.2,59.1,39.0,47.9,40.8,34.9,90,56,25,29.99,29.77,11,1,18,0.00
2012-6-2,80.8,63.4,46.0,52.4,47.0,40.7,88,58,35,29.80,29.74,14,3,23,0.00
2012-6-3,90.7,68.9,48.9,58.8,51.8,44.0,85,58,31,29.84,29.76,13,2,14,0.00
2012-6-4,88.9,71.2,54.5,61.7,53.4,46.9,86,57,26,29.95,29.82,15,3,22,0.00
2012-6-5,93.7,71.3,51.6,62.4,53.4,47.3,90,58,26,30.02,29.92,13,3,20,0.00
2012-6-6,93.0,73.3,58.3,63.4,57.6,49.5,84,60,35,30.04,29.96,16,5,22,0.00
2012-6-7,93.6,75.9,61.9,68.2,61.3,54.0,82,62,40,30.06,29.93,15,4,19,0.00
2012-6-8,101.5,80.1,68.2,69.8,61.6,56.6,74,55,32,29.95,29.70,12,5,18,0.00
2012-6-9,98.1,81.6,67.8,62.4,58.1,53.6,66,47,26,29.72,29.60,22,7,26,0.00
2012-6-10,95.4,77.1,59.5,72.1,62.1,54.0,90,62,42,29.77,29.53,23,7,26,1.28
2012-6-11,71.1,62.3,52.5,59.7,50.9,40.1,93,69,43,30.00,29.66,25,9,39,0.00
2012-6-12,79.0,60.3,46.4,45.4,41.9,37.8,80,53,29,30.18,29.98,15,5,21,0.00
2012-6-13,78.1,63.2,50.4,58.4,50.5,42.5,79,64,47,30.10,29.87,18,6,24,0.06
2012-6-14,84.0,67.9,57.7,68.7,59.8,50.0,91,76,59,29.90,29.72,24,8,31,1.36
2012-6-15,89.8,74.1,61.5,65.6,61.4,56.4,94,68,41,30.00,29.82,12,2,17,0.00
2012-6-16,87.3,71.9,61.0,71.5,59.7,49.5,89,67,39,29.98,29.80,21,5,25,0.00
2012-6-17,82.2,68.6,56.8,63.6,56.3,49.1,88,66,44,29.86,29.43,21,6,29,0.53
2012-6-18,92.3,76.5,61.9,69.4,61.6,57.5,94,64,36,29.66,29.40,18,4,26,0.02
2012-6-19,89.4,73.5,63.3,76.6,65.4,57.6,88,76,59,29.77,29.55,21,6,29,0.37
2012-6-20,76.8,68.2,61.0,67.4,62.5,57.1,92,82,68,29.86,29.58,25,5,32,0.82
2012-6-21,82.6,67.6,57.0,59.2,55.8,52.9,92,69,42,30.00,29.84,18,6,25,0.00
2012-6-22,90.7,69.5,52.9,57.5,53.7,49.4,92,61,29,30.04,29.93,12,3,21,0.00
2012-6-23,93.0,73.6,62.8,67.7,60.2,52.8,77,64,42,29.95,29.85,18,4,24,0.00
2012-6-24,87.8,74.4,65.1,65.7,61.1,55.2,86,65,36,30.10,29.89,17,4,21,0.00
2012-6-25,92.1,70.5,55.2,57.6,53.2,49.5,86,58,29,30.18,29.99,17,6,23,0.00
2012-6-26,89.6,71.6,56.1,58.9,54.1,49.6,84,57,31,30.03,29.71,20,7,26,0.00
2012-6-27,99.1,80.0,64.8,75.6,65.6,53.5,79,62,47,29.77,29.60,15,4,18,0.00
2012-6-28,90.3,77.3,63.7,72.4,57.2,51.1,82,52,31,29.94,29.74,15,5,22,0.00
2012-6-29,91.8,76.7,57.0,65.9,59.5,52.1,86,59,33,29.90,29.77,16,3,20,0.00
2012-6-30,97.0,78.0,60.6,64.6,60.5,57.0,91,60,29,29.90,29.81,10,2,13,0.00
2012-7-1,100.2,82.7,63.3,74.7,67.4,57.4,85,62,40,29.92,29.82,15,4,21,0.00
2012-7-2,104.0,87.5,72.3,78.3,73.5,68.6,90,66,43,29.86,29.70,18,5,26,0.00
2012-7-3,99.1,88.9,76.4,78.1,74.3,64.1,79,63,51,29.80,29.71,28,8,43,0.00
2012-7-4,102.4,88.9,76.6,79.7,75.6,69.6,88,67,47,29.81,29.69,63,11,86,0.00
2012-7-5,100.6,81.9,71.8,71.8,63.1,54.9,83,57,29,29.97,29.80,32,9,50,0.00
2012-7-6,84.4,71.6,66.6,68.3,62.5,56.1,80,73,59,30.06,29.91,99,15,100,0.00
2012-7-7,90.1,75.1,62.6,63.9,59.4,55.0,86,61,36,30.16,30.02,86,9,86,0.00
2012-7-8,90.7,76.3,62.2,64.8,61.3,56.8,85,62,35,30.17,30.07,26,6,43,0.00
2012-7-9,89.8,74.6,59.7,62.3,57.3,53.9,90,59,31,30.16,30.09,86,7,86,0.00
2012-7-10,97.9,76.6,57.0,62.2,57.2,52.9,87,56,29,30.18,30.07,71,5,71,0.00
2012-7-11,96.6,78.5,59.5,62.4,58.3,54.9,86,54,30,30.13,30.00,86,8,86,0.00
2012-7-12,93.4,76.9,63.7,69.0,62.3,56.0,78,62,41,30.02,29.91,43,7,43,0.00
2012-7-13,96.4,77.6,66.7,71.8,66.6,62.4,89,72,43,29.97,29.90,86,7,86,0.22
2012-7-14,97.0,79.8,63.3,71.2,65.7,60.6,92,66,38,30.02,29.95,86,7,86,0.00
2012-7-15,99.3,84.9,65.8,71.9,67.2,62.0,90,59,34,30.04,29.91,71,8,71,0.00
2012-7-16,104.0,89.1,79.5,72.7,68.3,67.7,73,51,36,29.92,29.70,86,15,86,0.00
2012-7-17,88.9,78.9,70.5,71.9,68.7,64.0,86,72,56,29.91,29.74,86,9,86,0.00
2012-7-18,89.8,73.5,66.2,72.5,66.5,62.5,94,80,57,29.97,29.86,100,11,100,0.53
2012-7-19,98.2,78.1,65.3,71.3,66.3,62.3,91,70,41,30.05,29.94,86,8,86,0.00
2012-7-20,97.9,79.2,68.5,76.2,69.8,64.4,89,74,49,30.10,29.97,100,10,100,0.35
2012-7-21,97.2,79.3,70.2,75.0,69.3,61.7,93,73,44,30.07,29.95,86,8,86,1.08
2012-7-22,102.6,82.7,70.3,77.8,71.0,61.7,90,69,45,29.99,29.85,71,6,71,0.00
2012-7-23,93.4,79.6,71.8,73.7,68.2,65.1,90,70,43,29.97,29.88,113,8,114,0.02
2012-7-24,91.4,76.5,68.9,74.9,68.8,65.2,91,78,58,29.99,29.75,112,14,114,0.16
2012-7-25,88.9,78.9,71.8,73.5,70.1,62.3,88,75,59,29.75,29.59,86,17,86,0.00
2012-7-26,80.8,72.8,60.1,63.1,59.6,55.3,87,65,47,29.84,29.67,86,14,86,0.00
2012-7-27,91.2,71.0,59.5,65.4,60.2,56.8,93,71,41,30.08,29.84,86,12,86,0.00
2012-7-28,90.9,74.2,58.8,68.1,62.6,55.9,93,70,45,30.11,29.99,86,14,86,0.06
2012-7-29,94.8,78.1,67.6,71.5,67.7,64.6,91,72,45,30.02,29.90,86,13,86,0.57
2012-7-30,88.9,77.1,67.8,69.1,64.9,43.9,91,69,44,29.97,29.84,86,16,86,0.00
2012-7-31,95.9,76.4,61.0,68.4,63.4,58.0,93,68,40,30.02,29.92,86,8,86,0.00
2012-8-1,94.1,79.7,67.6,74.4,67.3,62.1,85,67,43,29.93,29.78,100,24,100,0.00
2012-8-2,93.6,80.2,67.3,66.0,63.9,61.1,85,60,36,29.88,29.82,100,22,100,0.00
2012-8-3,93.6,77.7,65.3,69.0,64.6,60.0,89,67,42,29.90,29.71,100,24,100,0.20
2012-8-4,79.9,70.4,61.3,64.3,58.7,45.5,93,69,48,29.98,29.71,86,22,93,0.33
2012-8-5,84.0,66.0,52.2,58.0,53.0,48.8,92,66,39,30.19,29.93,86,23,100,0.00
2012-8-6,96.4,74.0,56.5,70.3,60.7,52.0,87,66,42,30.10,29.92,100,23,100,0.00
2012-8-7,88.9,74.0,61.9,63.2,59.2,54.2,91,64,36,30.02,29.93,100,20,100,0.00
2012-8-8,81.0,67.7,61.0,64.0,59.8,-26.0,88,76,55,30.03,29.95,94,20,100,0.04
2012-8-9,77.4,66.7,57.0,62.9,56.5,51.6,94,72,46,30.14,29.99,19,6,26,0.00
2012-8-10,82.8,65.1,51.4,56.4,51.9,48.2,90,66,38,30.20,30.07,15,3,34,0.00
2012-8-11,83.5,65.2,47.1,57.4,51.4,43.9,92,65,37,30.12,29.99,9,1,12,0.00
2012-8-12,71.8,63.8,57.9,60.6,56.3,53.5,90,77,58,30.02,29.98,8,2,17,0.00
2012-8-13,81.1,67.2,55.2,63.7,55.7,50.6,93,70,38,30.03,29.95,16,4,23,0.00
2012-8-14,84.0,66.6,49.8,59.7,53.4,46.6,92,66,38,30.00,29.86,10,1,12,0.00
2012-8-15,87.1,72.5,60.8,68.6,61.7,52.8,83,70,54,29.87,29.67,18,6,23,0.00
2012-8-16,71.2,62.5,52.5,60.0,50.0,43.1,86,65,41,30.04,29.78,20,8,31,0.00
2012-8-17,79.3,59.7,41.7,50.3,44.5,37.8,89,61,33,30.13,30.00,12,2,20,0.00
2012-8-18,83.5,63.9,46.0,55.1,49.2,42.4,90,63,31,30.03,29.92,18,2,21,0.12
2012-8-19,78.3,64.0,50.7,58.0,50.6,43.2,92,66,32,30.05,29.96,15,3,26,0.02
2012-8-20,82.9,61.8,42.6,51.8,45.1,39.0,91,60,29,30.05,29.96,11,2,16,0.00
2012-8-21,86.2,66.7,47.5,55.5,50.2,43.4,88,60,35,30.06,29.95,14,3,30,0.00
2012-8-22,85.3,67.9,54.3,65.4,57.0,49.4,85,70,45,29.97,29.84,18,5,21,0.18
2012-8-23,88.0,76.2,64.6,71.0,64.9,59.6,86,69,50,29.85,29.74,16,4,21,0.00
2012-8-24,93.7,76.6,58.8,73.2,65.4,55.9,92,71,46,29.84,29.77,19,4,24,0.00
2012-8-25,84.9,72.8,68.4,70.0,64.8,62.8,86,76,57,29.93,29.83,18,6,23,0.02
2012-8-26,87.6,73.0,59.4,65.8,59.8,51.1,93,67,30,30.03,29.92,18,3,26,0.00
2012-8-27,86.2,72.5,51.3,60.6,56.5,47.6,91,60,39,30.13,30.03,14,2,17,0.00
2012-8-28,90.5,73.0,60.3,68.4,61.6,54.1,84,69,47,30.13,29.95,18,6,23,0.18
2012-8-29,93.4,76.9,63.5,68.5,64.3,60.3,91,68,43,29.97,29.73,18,6,24,0.00
2012-8-30,85.8,74.1,64.2,67.2,61.8,54.1,78,66,47,29.95,29.67,12,4,16,0.00
2012-8-31,87.4,71.6,51.1,57.1,51.4,47.5,91,53,29,30.13,30.05,16,4,21,0.00
2012-9-1,88.3,74.8,55.6,58.3,53.3,47.4,75,49,32,30.13,29.99,20,6,26,0.00
2012-9-2,90.3,73.3,56.1,68.2,59.9,49.9,84,64,48,30.00,29.80,21,5,24,0.00
2012-9-3,95.7,75.8,59.0,65.5,56.5,47.3,92,58,21,29.93,29.82,10,2,13,0.00
2012-9-4,88.9,73.1,55.9,52.8,49.9,46.5,80,48,24,29.84,29.75,12,2,15,0.00
2012-9-5,77.9,69.9,59.4,56.0,50.1,44.2,74,51,31,29.89,29.74,22,5,27,0.00
2012-9-6,86.5,68.2,48.9,54.7,49.5,43.7,84,55,27,29.96,29.85,15,4,21,0.00
2012-9-7,66.6,59.0,48.7,55.5,48.7,41.7,92,70,48,30.05,29.91,21,6,25,0.04
2012-9-8,73.2,57.9,43.2,49.9,45.0,39.4,91,65,35,30.07,29.84,24,7,30,0.00
2012-9-9,78.6,60.7,46.8,53.1,47.8,43.8,92,66,36,30.20,30.05,9,2,15,0.00
2012-9-10,84.9,67.3,49.3,52.5,48.9,43.7,84,55,31,30.05,29.74,23,8,28,0.00
2012-9-11,97.3,75.4,60.6,59.0,53.5,43.9,70,49,26,29.88,29.64,19,7,26,0.00
2012-9-12,72.0,62.5,54.1,49.9,45.8,37.9,77,56,31,30.21,29.88,16,4,24,0.02
2012-9-13,73.8,58.0,39.7,48.0,36.5,28.8,90,52,19,30.32,30.21,22,3,24,0.00
2012-9-14,75.9,59.2,39.9,43.2,38.3,33.6,83,49,27,30.34,30.23,12,2,23,0.00
2012-9-15,86.4,65.0,46.6,52.6,43.7,36.0,73,49,27,30.23,29.89,16,5,21,0.00
2012-9-16,81.0,67.3,55.0,53.0,47.6,41.0,77,51,32,30.00,29.85,18,7,23,0.00
2012-9-17,62.4,52.5,39.9,44.5,37.7,32.3,78,59,36,30.03,29.95,18,6,22,0.04
2012-9-18,64.6,48.8,34.3,38.9,33.1,30.2,88,59,32,30.05,29.83,11,2,15,0.00
2012-9-19,70.2,57.2,48.9,47.0,39.9,32.7,69,53,34,29.84,29.61,29,8,36,0.00
2012-9-20,64.8,54.9,47.1,40.6,36.3,32.3,70,51,31,29.92,29.83,18,7,28,0.00
2012-9-21,62.8,51.1,39.0,46.0,38.8,27.0,85,66,32,29.93,29.79,27,5,42,0.06
2012-9-22,56.3,46.5,35.8,37.9,32.2,26.1,78,59,37,30.24,29.93,18,8,25,0.00
2012-9-23,61.2,43.2,26.8,35.6,27.9,22.3,88,59,29,30.31,30.12,14,3,22,0.00
2012-9-24,77.9,54.8,31.8,40.8,33.7,24.5,75,49,24,30.12,29.71,19,4,26,0.10
2012-9-25,67.3,56.0,39.2,52.2,37.4,31.2,86,51,32,29.98,29.80,12,2,16,0.00
2012-9-26,63.7,46.8,32.5,40.9,33.7,28.7,90,64,35,30.22,29.98,12,2,20,0.00
2012-9-27,71.4,48.3,29.1,41.8,33.9,25.2,91,62,29,30.29,30.16,9,1,10,0.00
2012-9-28,80.2,56.8,36.1,46.6,37.2,31.9,88,55,22,30.22,30.06,10,1,14,0.00
2012-9-29,83.3,61.5,42.4,46.3,40.7,35.0,78,50,25,30.13,29.98,11,1,13,0.10
2012-9-30,83.3,61.0,43.3,47.5,42.7,37.1,81,54,28,30.03,29.84,10,2,14,0.00
2012-10-1,70.3,61.3,50.2,47.9,41.6,34.7,72,50,34,29.98,29.82,20,8,26,0.00
2012-10-2,72.9,59.0,31.6,43.1,36.3,27.1,87,45,26,29.98,29.80,16,4,22,0.00
2012-10-3,79.5,58.0,39.9,42.9,38.1,34.2,82,53,22,29.89,29.72,15,3,21,0.00
2012-10-4,60.1,45.7,39.6,43.0,34.3,28.8,80,65,46,30.13,29.68,28,13,44,0.00
2012-10-5,42.6,38.0,33.1,30.4,27.1,25.8,76,65,52,30.16,30.10,21,11,32,0.00
2012-10-6,46.8,37.5,26.6,29.3,25.4,18.0,83,63,41,30.30,30.15,13,5,18,0.00
2012-10-7,55.6,38.0,23.5,27.4,21.4,17.4,82,55,27,30.21,29.82,17,4,21,0.00
2012-10-8,61.5,45.9,32.7,42.0,30.2,19.5,77,55,41,29.82,29.56,23,5,29,0.00
2012-10-9,47.5,41.9,34.2,35.7,30.4,24.3,84,64,50,29.98,29.70,20,8,31,1.03
2012-10-10,51.6,40.5,28.0,31.7,26.4,22.8,85,60,37,30.07,29.80,17,5,22,0.00
2012-10-11,47.3,40.5,27.5,33.2,25.1,16.1,80,56,34,30.39,29.80,19,7,26,0.00
2012-10-12,52.9,37.3,19.2,27.7,19.4,13.9,84,53,27,30.42,29.96,15,5,22,0.00
2012-10-13,62.2,51.8,40.8,50.5,40.8,20.7,87,67,33,29.96,29.67,15,4,20,0.00
2012-10-14,58.8,47.2,37.9,42.4,38.2,31.9,92,73,49,29.90,29.75,18,5,21,0.00
2012-10-15,65.8,48.0,28.6,41.2,35.2,24.8,91,64,40,29.95,29.66,13,3,18,0.00
2012-10-16,75.0,61.0,52.7,48.4,44.4,39.9,76,56,38,29.67,29.35,12,3,18,0.00
2012-10-17,56.1,47.9,44.8,45.5,42.2,40.1,86,81,64,29.36,29.22,18,7,45,0.00
2012-10-18,52.0,46.2,43.0,45.5,42.1,39.8,91,86,77,29.40,29.16,11,3,47,0.08
2012-10-19,55.4,48.4,44.4,48.4,44.8,41.8,93,88,71,29.74,29.40,12,4,15,0.20
2012-10-20,55.2,47.1,43.3,47.1,42.9,40.6,93,86,72,29.79,29.73,11,4,14,0.00
2012-10-21,66.9,51.3,40.8,49.1,43.8,38.4,93,77,51,29.91,29.75,17,5,20,0.00
2012-10-22,57.0,51.5,45.7,47.8,45.0,41.7,89,79,68,30.00,29.88,13,6,18,0.00
2012-10-23,59.2,54.9,50.2,57.2,51.8,43.9,93,89,78,29.87,29.63,14,6,20,0.12
2012-10-24,57.4,50.2,42.1,55.4,47.4,39.4,94,90,83,29.88,29.77,18,7,22,0.10
2012-10-25,42.4,36.5,32.4,39.4,31.6,26.4,93,83,70,30.12,29.77,22,10,28,0.16
2012-10-26,39.0,34.8,31.8,26.9,24.4,22.0,78,66,52,30.34,30.12,22,7,28,0.00
2012-10-27,34.2,31.1,28.6,24.5,23.0,20.3,75,72,59,30.30,30.27,5,1,7,0.00
2012-10-28,46.0,36.3,29.7,35.3,27.1,22.6,79,69,56,30.31,30.23,11,4,16,0.00
2012-10-29,47.1,36.9,29.8,30.0,26.5,23.2,78,66,51,30.28,30.22,13,5,16,0.00
2012-10-30,48.0,35.8,24.6,35.8,27.5,19.0,84,72,59,30.23,30.07,13,3,17,0.00
2012-10-31,52.9,35.9,20.3,32.1,25.7,16.8,89,69,42,30.09,29.92,8,1,10,0.00
2012-11-1,43.2,37.5,26.8,34.8,26.8,19.3,80,66,50,30.06,29.92,16,7,22,0.00
2012-11-2,40.6,31.2,20.8,28.7,23.1,16.2,87,72,60,30.17,30.06,9,1,12,0.00
2012-11-3,42.1,37.0,33.4,32.6,28.4,24.7,75,71,68,30.21,30.15,7,2,10,0.00
2012-11-4,46.6,38.2,30.0,33.1,28.9,24.1,81,69,59,30.21,30.13,10,3,14,0.00
2012-11-5,39.9,36.2,33.3,37.5,32.1,27.8,91,85,71,30.20,29.88,11,4,15,0.04
2012-11-6,41.7,38.7,34.2,36.4,34.0,31.3,91,83,76,29.98,29.73,20,8,24,0.30
2012-11-7,49.5,40.9,36.7,37.3,33.6,31.6,87,76,58,30.10,29.96,11,3,15,0.00
2012-11-8,51.8,41.6,34.0,38.3,33.8,29.8,86,74,59,30.00,29.90,12,5,18,0.00
2012-11-15,18.9,18.3,17.4,9.5,9.1,8.7,68,67,66,30.46,30.44,1,0,4,0.00
2012-11-16,41.9,26.9,12.7,21.1,14.9,7.2,82,62,39,30.49,30.25,12,3,16,0.00
2012-11-17,55.6,43.8,28.0,37.5,32.9,19.0,83,66,49,30.26,30.11,15,6,23,0.00
2012-11-18,56.1,48.1,39.9,37.7,34.5,30.9,71,59,49,30.12,30.01,16,7,24,0.00
2012-11-19,57.4,46.4,37.0,41.3,36.3,32.8,85,68,54,30.09,29.98,11,3,16,0.00
2012-11-20,48.6,35.4,24.4,38.5,30.7,21.1,92,83,67,30.18,29.97,7,2,10,0.00
2012-11-21,55.9,44.3,31.3,43.5,36.0,27.0,87,73,58,30.00,29.62,12,3,17,0.00
2012-11-22,53.8,38.0,19.9,42.7,31.2,15.2,88,77,67,30.01,29.56,21,8,31,0.00
2012-11-23,23.5,17.2,8.8,15.3,10.7,4.4,84,75,65,30.36,29.98,24,11,37,0.00
2012-11-24,27.1,16.9,1.9,20.3,10.9,-2.5,86,77,67,30.36,29.77,12,3,16,0.00
2012-11-25,30.4,25.6,12.6,22.9,18.6,4.6,82,74,62,30.19,29.78,18,8,24,0.00
2012-11-26,19.0,11.6,3.9,9.1,4.2,-1.2,79,72,62,30.41,30.19,13,5,17,0.00
2012-11-27,36.0,24.6,13.6,25.4,17.2,6.8,81,73,65,30.29,30.05,14,5,24,0.00
2012-11-28,37.0,29.5,23.7,26.4,22.1,17.9,79,74,64,30.30,30.04,17,4,18,0.00
2012-11-29,38.1,28.5,20.3,28.3,22.8,16.1,88,79,67,30.13,30.03,18,5,20,0.00
2012-11-30,36.1,31.0,26.1,29.4,26.2,21.2,88,82,74,30.18,29.99,15,6,20,0.00
2012-12-1,43.5,36.1,29.5,38.1,32.8,26.8,92,88,80,30.00,29.69,14,4,21,2.99
2012-12-2,40.6,35.0,30.7,36.5,32.5,26.6,93,91,84,29.97,29.71,14,4,20,0.00
2012-12-3,52.0,44.5,37.2,47.7,38.7,27.7,94,81,61,29.90,29.52,18,8,30,0.00
2012-12-4,38.8,24.3,14.2,27.7,14.5,7.8,77,66,51,30.38,29.89,17,6,23,0.00
2012-12-5,39.9,26.9,14.7,27.1,16.7,8.8,79,66,52,30.39,29.78,21,8,25,0.00
2012-12-6,43.0,34.8,21.9,33.5,26.4,17.0,82,71,60,30.00,29.72,21,6,28,0.02
2012-12-7,29.5,24.7,19.0,23.7,20.2,14.7,87,83,77,30.05,29.99,8,2,12,0.00
2012-12-8,32.9,26.9,22.3,25.3,21.9,18.6,87,81,73,30.04,29.95,12,3,14,0.02
2012-12-9,30.6,25.2,9.7,27.4,22.2,5.0,91,88,81,29.98,29.86,22,10,29,0.00
2012-12-10,14.4,5.7,-2.6,6.2,0.2,-6.8,82,78,69,29.99,29.79,14,4,18,0.00
2012-12-11,19.2,8.3,-1.1,12.0,2.7,-6.1,84,77,69,29.98,29.76,10,2,15,0.00
2012-12-12,39.0,23.1,-0.6,27.4,16.9,-5.7,87,77,62,29.98,29.78,11,4,25,0.04
2012-12-13,32.0,22.6,11.7,26.8,18.1,7.5,88,83,73,30.12,29.87,12,2,29,0.00
2012-12-14,32.7,21.7,9.5,26.8,17.1,5.1,88,82,70,30.12,29.75,14,4,17,0.00
2012-12-15,38.8,34.5,31.8,34.7,31.2,26.8,93,87,81,29.76,29.50,12,4,14,0.12
2012-12-16,33.4,22.3,17.2,31.4,19.0,14.0,92,87,80,29.79,29.56,14,8,21,0.02
2012-12-17,30.4,22.4,19.2,23.9,18.8,16.8,90,86,75,29.79,29.67,7,2,10,0.00
2012-12-18,33.4,25.0,22.3,25.0,20.7,19.3,88,84,70,29.79,29.63,10,3,12,0.00
2012-12-19,35.6,25.0,17.8,27.8,19.7,13.9,89,80,66,30.03,29.78,9,2,13,0.00
2012-12-20,23.7,18.2,8.6,18.2,13.5,4.6,86,81,74,30.10,29.92,22,10,29,0.00
2012-12-21,16.3,7.9,1.0,8.3,2.7,-2.7,86,79,69,30.26,30.10,10,3,13,0.00
2012-12-22,22.3,13.4,6.6,13.4,7.8,1.8,84,78,66,30.15,29.95,18,3,22,0.00
2012-12-23,23.7,13.6,7.2,12.8,7.3,3.1,84,76,61,30.15,30.02,12,4,16,0.00
2012-12-24,14.5,9.7,-0.8,8.9,3.1,-5.7,81,74,65,30.29,30.01,15,6,20,0.00
2012-12-25,6.6,-0.8,-7.8,-1.7,-6.8,-12.6,80,75,67,30.46,30.29,9,3,12,0.00
2012-12-26,15.6,6.2,-0.6,6.1,-0.2,-5.8,79,75,65,30.40,30.23,5,1,7,0.00
2012-12-27,25.2,14.0,2.1,14.4,7.9,-3.0,84,77,63,30.24,30.13,6,1,8,0.00
2012-12-28,29.3,19.1,9.7,20.6,13.6,4.7,85,79,67,30.13,30.01,5,1,6,0.00
2012-12-29,18.5,10.5,1.0,13.9,5.4,-3.7,87,80,71,30.13,30.01,11,3,14,0.00
2012-12-30,21.7,8.7,-0.8,13.3,3.3,-25.6,86,78,69,30.15,29.86,12,3,17,0.00
2012-12-31,15.6,5.6,-5.8,10.8,-1.7,-11.5,84,71,62,30.25,29.94,17,5,22,0.00
2013-1-1,20.5,7.9,-11.6,16.4,1.7,-17.5,84,76,66,30.25,29.97,10,2,12,0.00